Ridgeway Revenge
Skip Navigation Links
Results
Team Results
Past Results
Race Stats
16 Jun 2018
HyperLink
Click your name for detailed results
Page 1 of 3 (147 items)
[1]23
Pos
Bib No
Fav
Share
Print
Name
Gun Time
Chip Time
Category
Cat Pos
Gender
Gen Pos
Team
Pace
175Max Harrison-Tosatto1:26:15.61:26:15.6SEN1Male1  9.1 m/hr
2168Owen Weller1:33:06.91:33:05.9SEN2Male2  8.4 m/hr
342Andrew Denham1:33:58.41:33:56.7V401Male3Four Wise Monkeys 8.4 m/hr
4170Matt Wheatley1:34:38.41:34:36.7V402Male4  8.3 m/hr
5157Adrian Thrush1:38:00.31:37:59.5V501Male5  8.0 m/hr
678Ollie Hazel1:38:52.21:38:49.2SEN3Male6  7.9 m/hr
7175Richard Wilks1:41:26.91:41:25.7V403Male7  7.7 m/hr
8129Andrew Rennie1:41:30.21:41:24.7V404Male8  7.7 m/hr
9159Julian Tulk1:41:45.91:41:42.2SEN4Male9  7.7 m/hr
10141Stuart Shore1:42:50.51:42:49.1SEN5Male10AMCPS & Ringers 7.6 m/hr
1173Timothy Haines1:43:21.51:43:18.3SEN6Male11  7.6 m/hr
1231Iain Church1:44:41.41:44:39.7V405Male12Four Wise Monkeys 7.5 m/hr
1336Patrick Cooper1:44:45.81:44:44.3SEN7Male13  7.5 m/hr
1492Pieter Kriel1:44:55.01:44:54.2V406Male14  7.5 m/hr
1586Jimmy James1:45:18.91:45:12.5V407Male15  7.5 m/hr
16171Marc Whyborn1:45:19.81:45:10.8V408Male16  7.5 m/hr
17165Toby Warren1:45:38.81:45:38.6SEN8Male17  7.4 m/hr
1860Phil Freeman1:45:56.01:45:47.1SEN9Male18AMCPS & Ringers 7.4 m/hr
19108William Miller1:46:03.51:45:56.0SEN10Male19  7.4 m/hr
205David Bannister1:46:25.31:46:24.1V502Male20  7.4 m/hr
2138Brian Critchley1:46:58.01:46:51.3V503Male21  7.3 m/hr
22153Andrew Taylor1:47:24.51:47:22.1V409Male22  7.3 m/hr
231Rachel Allen1:47:37.01:47:29.3V401Female1  7.3 m/hr
24163Alan Walker1:47:43.71:47:40.5V4010Male23  7.3 m/hr
2574Gabriel Hannon1:48:03.71:48:01.2UKN1Male24  7.3 m/hr
26145Neil Smith1:48:40.71:48:38.5V4011Male25  7.2 m/hr
2799Henrietta Mackinnon1:50:56.01:50:50.0V402Female2  7.1 m/hr
2868Jake Golland1:51:12.41:51:07.7SEN11Male26  7.1 m/hr
2919Douglas Braidwood1:51:17.61:51:16.5V4012Male27  7.1 m/hr
3071Kathy Griffin1:52:03.41:51:58.5SEN1Female3  7.0 m/hr
3132William Clark-Lowes1:52:30.11:52:16.6SEN12Male28Dirty Badgers 7.0 m/hr
3223Anna Buckingham1:53:39.41:53:38.6SEN2Female4  6.9 m/hr
33125Marc Pujol1:53:57.61:53:45.7SEN13Male29  6.9 m/hr
34181Jamie Miller1:54:14.41:54:03.7V4013Male30  6.9 m/hr
3512Herve Bessieres1:54:35.81:54:33.3V4014Male31  6.9 m/hr
3625Alan Butler1:55:02.91:54:58.5V4015Male32  6.8 m/hr
37137Paul Sanderson1:55:09.31:54:54.8V601Male33  6.8 m/hr
38147Andy Sorensen1:55:27.31:55:27.1SEN14Male34  6.8 m/hr
3946James Disley1:55:52.61:55:44.9SEN15Male35  6.8 m/hr
4039Lucacs Daly1:56:20.81:56:11.6SEN16Male36  6.8 m/hr
41139Stephen Shakespeare1:56:37.31:56:34.6V4016Male37  6.7 m/hr
42126Paul Ray1:56:42.11:56:35.3SEN17Male38Faringdon and on 6.7 m/hr
43161Sue Van Huyssteen1:56:54.01:56:46.1UKN1Female5  6.7 m/hr
4411Andy Bennett1:56:58.61:56:48.2SEN18Male39AMCPS & Ringers 6.7 m/hr
4550Bill Egginton1:57:30.21:57:25.0V602Male40  6.7 m/hr
46131Polly Reuter1:57:35.31:57:22.1V403Female6  6.7 m/hr
4770Brian Griffin1:57:39.51:57:32.8V603Male41  6.7 m/hr
48169Charles Whalley1:57:44.71:57:34.3SEN19Male42  6.7 m/hr
4962Ben Fry1:58:03.01:57:56.1SEN20Male43  6.7 m/hr
50114Karl Overton1:58:03.11:57:56.4V4017Male44  6.7 m/hr
Page 1 of 3 (147 items)
[1]23
fb